Vertical_Velocity
0 -4 2 -6 -2 -3 0 1 1 1 -2 -1 0 -1 3 -1 3 -0 -4 0 1 1 -17 -1 4 -1 -2 2 -2 -2 -11 -2 -1 -1 1 -3 1 -5 2 -4 -5 -4 -1 -1 3 3 -8 -0 -0 -8 -12 -0 -0 -1
-3 -4 4 1 -4 -5 3 -1 -1 -1 -1 -2 -0 -0 -1 -2 1 3 -2 1 6 2 -16 7 -7 1 1 -0 2 -0 -8 2 -2 2 -1 0 -0 0 -1 -2 -1 1 -13 -8 -11 -13 -2 -1 -2 -2 5 2 -5 4
-4 0 2 -2 3 3 3 -0 3 1 -1 -0 3 6 3 -1 1 5 -0 4 2 4 -13 12 -15 6 -5 3 16 5 -3 -4 -10 5 0 -2 2 -1 -1 -3 2 -3 1 -0 8 -12 -7 -16 -0 -2 -5 -2 -1 4
-1 -0 -3 0 -1 -0 1 0 -0 -3 -2 -0 -3 -5 -1 7 3 16 -1 2 -0 2 5 -32 8 -0 -3 4 8 -3 -5 12 6 5 0 0 -0 3 -2 -4 3 -8 1 -0 -5 -3 1 -12 -1 -4 -8 3 -3 7
-0 -2 -2 -2 0 -1 -0 -0 -4 -2 -0 -0 -1 -3 0 1 6 14 3 -4 2 -4 -0 -2 -18 -7 3 9 -1 14 9 8 3 4 3 -3 0 8 -4 7 -1 -5 -7 -1 -10 -8 0 -15 -9 -1 -0 -3 -2 4
0 0 -1 -4 -0 -0 -5 -3 -1 -2 -1 2 1 -2 2 2 13 8 -9 -6 10 11 15 -1 6 -35 2 0 7 8 -1 8 -2 -2 -5 -4 -14 12 3 -1 -29 2 -3 -3 -33 -1 7 -10 -7 -7 -3 1 1 2
-1 -1 -1 0 -0 -1 0 -1 -2 -2 -1 0 -1 -0 -1 1 10 -4 -9 0 -1 -1 1 -3 -2 2 -2 -4 -1 -1 9 -7 3 -3 -1 2 1 13 4 0 -33 -9 -4 -0 -5 24 -4 1 -29 3 -1 3 4 2
1 2 2 -1 0 0 -2 -1 -1 0 -2 -2 -2 -1 -2 6 8 -3 -3 6 15 9 11 2 -6 -2 -10 -3 -3 2 2 3 4 -6 5 2 5 7 1 -20 -4 -4 -8 -3 -2 -2 -6 4 -3 -3 3 4 -0 3
1 -1 0 -1 -1 -0 -2 2 4 7 7 11 3 12 2 -0 -3 -14 2 -5 18 4 -1 3 -2 -6 4 -5 -2 2 5 2 -0 0 -1 7 0 -3 -15 -5 -6 -10 -11 -21 6 2 -9 -2 5 -0 2 3 -2 1
-1 -1 6 1 -1 -3 4 5 1 5 1 4 -1 -3 -2 -3 2 5 7 1 6 3 8 1 1 -5 9 2 -2 3 3 -2 1 -11 2 5 -11 -16 -9 -8 -3 -2 -9 15 5 4 3 -9 -2 -2 -4 3 1 -1
1 1 -1 -1 -0 0 2 -1 -1 1 -1 -1 -1 -5 3 1 0 1 1 -1 2 1 3 -6 -2 0 -2 3 -3 -3 -3 -2 3 -7 2 -1 -3 -13 7 -5 -1 1 0 -3 2 2 2 4 7 3 -1 1 0 -1
-2 -1 -0 -1 -0 1 6 -0 1 2 4 0 -1 -1 1 -3 0 -4 -1 -5 2 -5 4 1 1 -4 -4 6 2 1 -0 3 -4 -1 4 -0 -7 -0 -0 1 1 6 2 -1 3 1 4 0 -1 1 -0 1 1 -0
-1 -1 -1 -1 -1 8 -0 1 2 9 2 7 9 1 2 -0 -2 -1 -2 -5 -0 -2 -5 -6 -7 0 6 3 2 3 5 -5 -0 3 -3 -5 -1 0 -1 1 2 2 2 4 3 2 2 -3 -0 1 0 1 -1 -1
-1 -3 -1 -0 -1 -0 3 1 1 8 2 3 -2 1 -5 -2 -2 -4 -3 -3 -5 -1 -4 -1 -2 4 -2 6 -1 6 -8 2 1 1 -6 -2 -0 1 1 1 3 3 3 3 1 1 1 0 -1 -0 -1 -1 -1 0
-2 -1 -1 -2 -2 2 4 4 2 2 -1 3 1 -3 -1 -8 -1 -2 -0 3 -3 -2 6 -3 -2 7 -1 4 -0 1 1 -1 -2 -4 -2 -1 0 -0 -0 1 1 1 3 3 1 0 0 2 2 1 0 -1 -0 1
-2 -0 -2 1 0 6 4 3 -1 9 5 1 1 -0 1 0 -4 1 1 -3 4 2 -1 -0 0 3 -2 0 4 -2 0 -2 -3 0 -0 1 -0 0 -0 -1 2 0 1 0 -0 1 2 1 2 1 -0 1 1 2
1 -7 1 2 1 5 9 2 8 8 1 0 -4 2 0 -1 -3 -0 3 0 2 1 -0 1 4 -3 -0 1 0 0 2 1 1 -1 1 1 1 2 1 2 2 1 1 1 1 1 1 1 -0 1 1 2 2 1
-4 -2 2 -1 8 1 4 3 0 1 -1 -1 -2 -1 -0 -0 -2 -1 -2 -2 2 0 2 -2 4 1 1 2 -2 1 -3 3 3 2 2 -1 -0 2 1 -0 2 0 1 3 3 1 -1 -1 2 1 1 2 1 2
-2 1 -0 4 2 1 -4 -1 -1 -0 -4 1 -1 -0 -0 -3 -1 1 3 2 3 3 2 1 3 0 -0 0 2 -7 -4 7 0 0 2 1 2 3 3 2 3 3 4 1 1 -1 1 5 0 2 1 4 -2 2
2 1 7 4 2 -2 -1 -0 -1 0 -2 1 -0 -1 -0 -0 0 0 2 2 0 3 4 1 -0 2 2 -4 5 2 8 7 5 1 4 2 1 3 4 3 1 3 0 0 1 2 1 -0 4 4 4 2 1 -1
3 -2 2 2 -1 -2 -1 -1 -1 -1 1 -0 2 -0 -0 1 -0 0 -1 -2 3 -0 -0 0 -2 -3 2 3 5 9 4 4 1 -0 1 3 3 0 2 0 2 2 -1 1 -0 2 3 0 2 2 2 -1 -1 -2
0 4 -1 1 0 1 1 1 0 1 0 0 -1 1 -0 -1 -0 0 1 1 -0 -1 -0 -1 -3 -0 -1 -1 0 5 4 6 2 0 2 4 1 2 2 1 -2 -1 0 2 2 1 1 0 0 1 1 -1 3 1
4 9 -1 0 -0 1 -2 -0 -0 1 -2 -2 -0 -0 -1 -0 0 2 -1 1 1 1 1 0 1 3 2 2 4 4 4 5 1 3 4 2 2 3 2 2 3 1 0 3 4 2 -0 3 2 0 1 2 1 -2
13 -2 -0 1 1 -2 0 -0 0 0 0 -1 -0 -1 -1 -0 0 -1 -0 0 0 2 -0 2 1 3 5 3 1 2 3 6 2 2 4 3 -0 2 3 2 4 3 -0 -3 -2 -1 0 0 3 2 2 -1 1 -1
-1 -1 0 -1 -0 -0 -2 -2 -2 -2 -0 -0 -0 -1 -2 0 -1 -1 1 -1 -1 -1 -0 2 1 2 0 3 3 2 6 5 1 -3 4 3 -2 -1 -2 -0 0 -1 2 -1 -1 1 0 3 3 2 1 -0 -1 1
-4 -1 -4 -1 -1 -2 -1 -1 -0 -1 0 -0 -1 -0 1 -1 -2 -0 1 -0 1 1 -1 -1 -0 -1 1 1 2 3 2 3 6 -5 0 -0 -1 -1 -2 -3 -2 -0 6 7 -1 -4 -3 1 0 -0 -2 2 1 -0
-3 -3 -0 1 0 0 -1 0 1 -0 -0 -0 -0 -1 -1 -1 -0 -0 1 0 -0 1 2 1 2 1 1 2 1 2 3 4 0 -5 -2 0 0 2 6 -2 -3 -4 2 6 4 5 -3 -2 -1 0 -3 -3 -2 -1
-1 -0 -3 -0 -0 0 -2 -0 -0 -0 -0 0 1 -0 0 1 0 -1 -0 0 1 2 2 2 1 1 2 1 1 2 3 5 2 -1 -1 -0 2 0 -0 -0 -0 0 2 7 4 1 2 1 -0 -1 0 -0 0 0
-0 0 1 -1 0 -0 -0 -1 -1 1 -0 1 -0 0 0 0 0 0 1 1 0 0 1 0 -0 0 2 1 1 1 2 4 4 0 -1 -4 -1 2 4 3 1 1 0 -4 -1 2 1 1 1 2 -1 -1 -2 -1
0 0 -1 -0 -1 -1 -0 -0 0 1 1 1 1 0 0 -0 1 2 2 1 2 0 0 0 1 2 1 0 0 2 2 3 5 4 -2 -4 -3 -1 1 1 1 -0 -0 1 0 -3 -1 1 1 -1 -1 -2 -1 1
0 0 -1 -0 -1 -0 0 1 1 1 1 1 1 -1 -1 -0 1 2 1 -0 0 1 2 1 1 0 2 1 0 1 -0 1 1 4 1 1 2 -0 -0 0 1 1 2 2 1 1 -0 -2 -2 -1 -1 -0 -1 -1
0 -0 -1 -1 -0 -0 -0 -1 -0 0 0 0 0 -0 -0 -0 0 1 0 -1 -0 2 1 1 2 1 -0 -0 0 -0 1 1 -0 -3 2 1 -1 1 2 2 1 -1 -1 -1 -1 -3 -2 -1 -2 0 1 1 0 -1
-0 0 0 -0 -0 -0 0 0 -0 -1 -1 -1 -1 -0 -0 0 0 -1 -1 0 0 0 -0 -0 -0 -1 -1 -0 -1 -2 -1 -3 -2 2 3 3 4 2 2 2 -0 -1 -1 -1 -1 -0 -0 -1 1 0 -0 0 -0 -0
Height
1497 1501 1502 1503 1507 1509 1510 1510 1510 1510 1511 1513 1514 1514 1514 1514 1515 1515 1515 1515 1516 1516 1512 1512 1511 1510 1511 1512 1514 1512 1513 1506 1506 1509 1504 1498 1498 1492 1488 1484 1485 1485 1491 1488 1487 1484 1470 1450 1452 1456 1446 1439 1438 1437
1495 1500 1500 1501 1503 1506 1507 1506 1507 1507 1507 1509 1510 1510 1510 1511 1511 1511 1512 1513 1512 1513 1510 1508 1507 1506 1507 1508 1512 1510 1511 1507 1504 1501 1500 1497 1489 1488 1485 1484 1475 1478 1469 1473 1470 1460 1449 1448 1446 1443 1443 1441 1435 1434
1494 1497 1496 1498 1501 1503 1503 1503 1504 1504 1504 1505 1506 1507 1507 1507 1508 1508 1508 1509 1509 1508 1504 1501 1499 1501 1500 1500 1502 1507 1504 1502 1501 1500 1500 1497 1497 1488 1487 1474 1471 1465 1459 1460 1461 1448 1446 1445 1440 1441 1439 1435 1430 1429
1492 1492 1494 1495 1497 1499 1500 1500 1500 1500 1501 1501 1501 1502 1503 1504 1504 1504 1504 1505 1506 1505 1501 1494 1493 1491 1493 1493 1494 1494 1493 1495 1495 1496 1496 1494 1492 1482 1478 1471 1466 1461 1460 1456 1451 1444 1440 1438 1436 1435 1432 1429 1425 1422
1488 1489 1491 1493 1495 1494 1495 1496 1495 1496 1496 1496 1497 1498 1498 1499 1500 1499 1499 1500 1500 1503 1495 1491 1490 1485 1484 1483 1482 1483 1486 1488 1490 1492 1488 1482 1479 1482 1472 1470 1455 1452 1447 1451 1441 1434 1435 1431 1430 1431 1428 1424 1422 1420
1485 1486 1487 1491 1492 1491 1491 1492 1491 1491 1491 1491 1492 1493 1493 1494 1495 1496 1495 1492 1492 1493 1493 1489 1483 1477 1474 1475 1473 1474 1478 1481 1482 1481 1475 1471 1470 1472 1459 1445 1422 1431 1437 1437 1431 1421 1428 1425 1425 1423 1421 1417 1419 1417
1482 1483 1485 1487 1488 1488 1488 1487 1487 1487 1487 1487 1488 1488 1489 1490 1490 1491 1491 1490 1490 1491 1490 1485 1476 1471 1470 1469 1468 1468 1468 1467 1469 1469 1461 1459 1457 1459 1449 1434 1382 1423 1423 1421 1417 1419 1420 1418 1416 1414 1413 1411 1413 1413
1480 1481 1482 1483 1484 1484 1484 1484 1483 1483 1482 1483 1483 1484 1485 1485 1485 1484 1483 1486 1486 1487 1485 1479 1474 1470 1468 1463 1462 1460 1459 1457 1454 1451 1444 1443 1446 1448 1429 1387 1403 1408 1412 1411 1409 1410 1410 1411 1410 1408 1408 1408 1408 1408
1477 1478 1479 1480 1480 1481 1481 1481 1481 1480 1480 1479 1479 1480 1480 1479 1479 1476 1479 1481 1481 1486 1480 1474 1475 1472 1460 1458 1457 1455 1451 1445 1438 1433 1431 1433 1425 1410 1389 1391 1391 1393 1396 1395 1397 1401 1403 1402 1400 1403 1404 1404 1404 1404
1474 1475 1476 1477 1477 1478 1479 1479 1478 1477 1477 1476 1477 1477 1475 1474 1474 1476 1475 1475 1474 1473 1471 1464 1463 1457 1457 1454 1451 1451 1442 1436 1427 1414 1414 1408 1392 1384 1382 1378 1377 1380 1383 1387 1391 1393 1395 1395 1394 1396 1397 1400 1401 1401
1472 1473 1473 1474 1475 1475 1475 1475 1476 1475 1474 1474 1473 1473 1473 1473 1473 1473 1472 1472 1468 1465 1457 1449 1448 1447 1447 1448 1448 1448 1437 1423 1417 1402 1401 1387 1374 1361 1362 1366 1366 1371 1377 1380 1382 1384 1385 1387 1389 1391 1394 1396 1397 1398
1470 1470 1471 1471 1471 1471 1472 1472 1473 1472 1472 1472 1472 1471 1472 1472 1472 1473 1473 1468 1465 1456 1445 1443 1443 1442 1436 1436 1435 1433 1427 1422 1409 1395 1388 1377 1358 1356 1355 1354 1357 1363 1368 1373 1376 1378 1381 1383 1385 1387 1390 1392 1394 1395
1467 1467 1467 1467 1467 1468 1469 1469 1469 1468 1467 1467 1467 1468 1469 1470 1473 1474 1483 1470 1462 1451 1447 1444 1440 1435 1427 1426 1426 1421 1411 1401 1393 1386 1379 1366 1356 1356 1354 1352 1353 1356 1361 1366 1370 1374 1377 1381 1384 1386 1388 1389 1391 1392
1464 1464 1464 1464 1464 1464 1464 1464 1464 1464 1465 1464 1464 1465 1466 1474 1463 1458 1456 1452 1449 1446 1444 1442 1439 1434 1422 1418 1411 1401 1394 1388 1384 1384 1375 1364 1359 1357 1356 1356 1355 1357 1360 1364 1368 1372 1376 1380 1382 1384 1386 1387 1388 1389
1461 1460 1460 1460 1460 1460 1460 1460 1460 1460 1461 1460 1460 1461 1460 1450 1449 1447 1448 1447 1444 1443 1442 1437 1431 1426 1413 1400 1397 1391 1389 1388 1381 1372 1369 1364 1361 1360 1359 1359 1359 1360 1362 1364 1368 1371 1375 1377 1379 1382 1383 1385 1387 1388
1456 1456 1455 1455 1455 1455 1455 1456 1457 1457 1456 1456 1455 1453 1449 1450 1445 1445 1444 1443 1443 1441 1440 1437 1429 1417 1398 1391 1384 1382 1385 1379 1373 1372 1369 1367 1365 1364 1363 1363 1362 1363 1364 1366 1369 1371 1373 1376 1378 1380 1383 1385 1387 1389
1452 1450 1451 1449 1448 1449 1450 1452 1453 1452 1452 1451 1447 1445 1446 1445 1442 1439 1439 1439 1440 1440 1439 1437 1426 1403 1398 1381 1382 1382 1384 1382 1378 1374 1370 1368 1367 1365 1365 1365 1365 1365 1367 1368 1370 1372 1374 1377 1380 1383 1384 1387 1389 1392
1447 1447 1446 1444 1445 1446 1448 1449 1449 1449 1447 1444 1443 1440 1440 1440 1438 1436 1436 1436 1437 1435 1434 1431 1426 1416 1402 1395 1388 1391 1390 1384 1378 1375 1372 1370 1369 1368 1368 1368 1368 1369 1370 1371 1373 1375 1378 1381 1384 1386 1388 1391 1393 1396
1444 1444 1444 1444 1445 1446 1447 1447 1448 1446 1442 1440 1438 1437 1436 1434 1432 1432 1431 1431 1431 1431 1431 1427 1421 1411 1407 1404 1400 1394 1389 1384 1380 1377 1375 1373 1372 1371 1371 1372 1372 1373 1373 1375 1378 1380 1384 1387 1389 1391 1393 1396 1397 1401
1441 1441 1442 1443 1445 1446 1446 1446 1445 1443 1439 1437 1435 1433 1432 1430 1429 1428 1427 1427 1426 1426 1424 1421 1416 1413 1411 1405 1400 1393 1388 1385 1382 1380 1377 1376 1376 1375 1375 1376 1377 1378 1379 1382 1385 1387 1389 1392 1395 1397 1399 1401 1403 1406
1439 1439 1441 1442 1443 1445 1444 1443 1441 1440 1436 1434 1432 1431 1428 1426 1425 1425 1425 1424 1424 1423 1420 1417 1415 1411 1407 1402 1397 1392 1387 1385 1383 1381 1380 1380 1380 1380 1380 1381 1383 1384 1386 1388 1390 1393 1396 1397 1400 1403 1406 1407 1410 1413
1437 1438 1439 1441 1442 1442 1441 1440 1439 1437 1436 1431 1430 1428 1426 1425 1424 1424 1424 1423 1423 1422 1421 1417 1412 1408 1404 1400 1396 1392 1389 1387 1385 1384 1384 1383 1384 1385 1387 1388 1390 1391 1393 1395 1397 1399 1401 1404 1407 1410 1411 1413 1417 1419
1436 1437 1438 1439 1440 1439 1439 1438 1437 1434 1433 1429 1428 1427 1426 1425 1424 1424 1424 1424 1424 1422 1418 1414 1410 1408 1404 1401 1398 1395 1393 1391 1390 1389 1389 1389 1390 1391 1392 1394 1396 1397 1399 1402 1404 1405 1407 1411 1414 1416 1418 1421 1424 1426
1433 1435 1437 1436 1437 1436 1437 1435 1434 1433 1431 1429 1429 1428 1426 1424 1424 1423 1425 1424 1424 1421 1417 1413 1410 1408 1406 1403 1401 1400 1398 1397 1395 1395 1395 1395 1395 1397 1399 1401 1403 1404 1406 1408 1411 1412 1415 1418 1421 1423 1426 1428 1430 1432
1434 1436 1436 1435 1435 1436 1437 1436 1435 1434 1435 1430 1430 1428 1425 1424 1425 1426 1426 1426 1424 1421 1419 1416 1413 1411 1410 1408 1406 1405 1404 1403 1402 1400 1401 1402 1403 1404 1406 1408 1410 1412 1415 1417 1418 1421 1423 1426 1428 1431 1433 1435 1437 1438
1431 1433 1435 1433 1434 1435 1436 1437 1438 1437 1434 1431 1429 1427 1425 1425 1428 1430 1428 1427 1424 1423 1421 1418 1416 1415 1414 1412 1410 1409 1408 1408 1408 1407 1408 1409 1411 1412 1413 1414 1417 1420 1424 1426 1427 1428 1430 1433 1435 1437 1438 1441 1443 1444
1433 1432 1432 1433 1433 1433 1433 1433 1433 1433 1434 1433 1430 1428 1427 1431 1431 1430 1429 1427 1425 1424 1422 1421 1419 1418 1416 1414 1413 1412 1412 1412 1413 1414 1415 1415 1417 1419 1421 1422 1424 1427 1430 1433 1435 1437 1437 1439 1441 1443 1444 1446 1448 1449
1428 1429 1431 1432 1432 1433 1433 1434 1435 1434 1433 1432 1431 1431 1430 1432 1432 1430 1428 1427 1426 1425 1423 1422 1421 1420 1418 1417 1416 1416 1416 1416 1417 1419 1420 1421 1423 1425 1427 1430 1431 1434 1437 1440 1442 1444 1445 1446 1447 1449 1450 1451 1452 1453
1428 1428 1430 1431 1432 1432 1433 1434 1434 1434 1434 1432 1432 1432 1433 1433 1432 1430 1429 1428 1427 1426 1426 1425 1424 1423 1422 1421 1420 1419 1420 1420 1421 1422 1424 1425 1429 1433 1434 1436 1438 1441 1443 1445 1447 1449 1451 1452 1454 1455 1455 1456 1457 1457
1428 1428 1429 1430 1432 1434 1433 1433 1433 1433 1433 1432 1432 1432 1433 1433 1433 1432 1431 1430 1430 1429 1428 1427 1426 1425 1424 1423 1423 1422 1422 1423 1424 1426 1427 1430 1434 1437 1440 1442 1445 1447 1449 1451 1452 1454 1456 1458 1459 1460 1460 1460 1460 1460
1427 1428 1429 1430 1431 1432 1433 1433 1433 1433 1433 1433 1432 1433 1434 1434 1434 1434 1433 1433 1432 1431 1431 1430 1428 1427 1426 1426 1425 1426 1426 1426 1427 1430 1432 1436 1439 1442 1445 1448 1450 1452 1455 1456 1458 1459 1460 1462 1463 1463 1463 1463 1463 1463
1428 1428 1429 1431 1432 1433 1433 1433 1433 1433 1433 1433 1434 1435 1436 1435 1435 1435 1435 1435 1434 1434 1432 1431 1430 1429 1429 1428 1429 1429 1430 1431 1432 1435 1440 1442 1444 1447 1450 1452 1455 1457 1459 1461 1462 1463 1464 1465 1466 1467 1467 1467 1466 1466
1428 1429 1429 1430 1432 1433 1433 1433 1434 1434 1434 1434 1435 1435 1435 1436 1436 1437 1437 1436 1436 1435 1434 1434 1433 1432 1432 1432 1433 1434 1435 1437 1440 1443 1446 1449 1451 1453 1456 1457 1459 1461 1463 1464 1465 1466 1467 1468 1469 1469 1469 1468 1467 1467